FW0743 Weather Reports


Display with metric or nautical units.
time (UTC)temp
F
wind
direction
speed
MPH
gust
MPH
rain 1hr
in
rain 24hr
in
rain mn
in
humidity
%
barometer
mb
20260509083011 35 178 4.0 9.0 0.00 0.00 0.00 81 1010.5
20260509081510 35 180 4.0 6.0 0.00 0.00 0.00 82 1010.7
20260509080018 35 173 2.0 6.0 0.00 0.00 0.00 82 1010.8
20260509074526 35 169 2.0 5.0 0.00 0.00 0.00 82 1010.8
20260509073024 35 167 2.0 5.0 0.00 0.00 0.00 83 1010.9
20260509071510 34 184 2.0 6.0 0.00 0.00 0.00 84 1010.9
20260509070015 34 165 1.0 4.0 0.00 0.00 0.00 84 1010.9
20260509064519 35 161 1.0 4.0 0.00 0.00 0.00 83 1011.0
20260509063026 35 159 1.0 3.0 0.00 0.00 0.00 83 1011.2
20260509061528 35 148 1.0 2.0 0.00 0.00 0.00 84 1011.3
20260509060010 36 164 0.0 5.0 0.00 0.00 0.00 84 1011.4
20260509054516 37 157 2.0 5.0 0.00 0.01 0.00 84 1011.5
20260509053022 37 161 4.0 7.0 0.00 0.01 0.00 86 1011.5
20260509051523 37 165 3.0 7.0 0.00 0.01 0.00 87 1011.7
20260509050042 36 169 3.0 6.0 0.00 0.01 0.00 89 1011.8
20260509044512 35 169 2.0 5.0 0.00 0.01 0.00 90 1011.9
20260509043016 34 182 1.0 4.0 0.00 0.01 0.00 91 1012.1
20260509041523 33 311 1.0 2.0 0.00 0.01 0.00 89 1012.1
20260509040026 33 311 0.0 2.0 0.00 0.01 0.00 87 1012.1
20260509034528 33 311 0.0 2.0 0.00 0.01 0.01 87 1012.1
20260509033012 34 311 0.0 1.0 0.00 0.01 0.01 86 1012.0
20260509031530 34 311 0.0 2.0 0.00 0.01 0.01 84 1012.0
20260509030032 35 311 1.0 2.0 0.00 0.01 0.01 84 1012.1
20260509024504 35 311 0.0 1.0 0.00 0.01 0.01 84 1012.2
20260509023017 35 311 0.0 2.0 0.00 0.01 0.01 83 1012.2
20260509021518 35 311 1.0 2.0 0.00 0.01 0.01 80 1012.3
20260509020021 36 311 0.0 1.0 0.00 0.01 0.01 79 1012.3
20260509014527 37 311 0.0 2.0 0.00 0.01 0.01 78 1012.1
20260509013016 38 311 0.0 1.0 0.00 0.01 0.01 74 1011.9
20260509011514 39 311 0.0 0.0 0.00 0.01 0.01 75 1011.8
20260509010023 40 311 0.0 1.0 0.00 0.01 0.01 71 1011.6
20260509004533 42 311 0.0 0.0 0.00 0.01 0.01 64 1011.5
20260509003024 43 311 0.0 0.0 0.00 0.01 0.01 62 1011.4
20260509001512 45 311 0.0 1.0 0.00 0.01 0.01 50 1011.3
20260509000016 47 311 0.0 1.0 0.00 0.01 0.01 48 1011.2
20260508234517 49 311 0.0 1.0 0.00 0.01 0.01 43 1011.2
20260508233023 50 310 1.0 4.0 0.00 0.01 0.01 40 1011.1
20260508231530 52 321 0.0 6.0 0.00 0.01 0.01 39 1011.0
20260508230013 52 264 0.0 3.0 0.00 0.01 0.01 35 1011.1
20260508224519 52 321 3.0 7.0 0.00 0.01 0.01 35 1011.1
20260508223033 52 343 5.0 10.0 0.00 0.01 0.01 36 1011.2
20260508221531 52 32 2.0 9.0 0.00 0.01 0.01 40 1011.3
20260508220021 52 278 6.0 10.0 0.00 0.01 0.01 40 1011.3
20260508214516 51 286 3.0 12.0 0.00 0.01 0.01 42 1011.4
20260508213029 52 242 3.0 9.0 0.00 0.01 0.01 42 1011.2
20260508211529 52 350 3.0 12.0 0.00 0.01 0.01 40 1011.3
20260508210032 52 325 4.0 10.0 0.00 0.01 0.01 43 1011.4
20260508204512 51 242 8.0 12.0 0.00 0.01 0.01 42 1011.5
20260508203020 50 299 4.0 12.0 0.00 0.01 0.01 45 1011.7
20260508201522 49 355 1.0 9.0 0.00 0.01 0.01 52 1011.7
20260508200031 49 257 2.0 10.0 0.00 0.01 0.01 52 1011.9
20260508194527 51 13 7.0 15.0 0.00 0.01 0.01 54 1012.0
20260508193014 50 249 2.0 12.0 0.00 0.01 0.01 53 1011.9
20260508191525 49 309 5.0 16.0 0.00 0.01 0.01 58 1012.0
20260508190033 49 319 5.0 12.0 0.00 0.01 0.01 58 1011.9
20260508184527 48 311 5.0 11.0 0.00 0.01 0.01 55 1012.0
20260508183015 49 252 5.0 14.0 0.00 0.01 0.01 50 1012.0
20260508181541 47 296 4.0 9.0 0.00 0.01 0.01 59 1012.1
20260508180005 47 355 4.0 10.0 0.00 0.01 0.01 57 1012.3
20260508174514 47 329 3.0 10.0 0.00 0.01 0.01 55 1012.4
20260508173012 47 335 3.0 13.0 0.00 0.01 0.01 58 1012.5
20260508171517 46 321 5.0 12.0 0.00 0.01 0.01 58 1012.6
20260508170024 47 74 1.0 10.0 0.00 0.01 0.01 65 1012.4
20260508164505 46 286 3.0 8.0 0.00 0.01 0.01 68 1012.4
20260508163008 47 336 8.0 15.0 0.00 0.01 0.01 55 1012.6
20260508161511 47 289 2.0 9.0 0.00 0.01 0.01 60 1012.6
20260508160033 46 296 2.0 11.0 0.00 0.01 0.01 62 1012.8
20260508154524 46 24 3.0 12.0 0.00 0.01 0.01 63 1012.7
20260508153006 45 300 5.0 14.0 0.00 0.01 0.01 64 1012.6
20260508151511 45 282 4.0 11.0 0.00 0.01 0.01 62 1012.8
20260508150015 44 228 5.0 10.0 0.00 0.01 0.01 65 1012.8
20260508144520 44 300 5.0 10.0 0.00 0.01 0.01 68 1013.0
20260508143026 43 254 4.0 9.0 0.00 0.01 0.01 70 1012.9
20260508141510 42 266 3.0 9.0 0.00 0.01 0.01 67 1012.8
20260508140012 41 294 1.0 5.0 0.00 0.01 0.01 68 1012.9
20260508134517 42 261 6.0 10.0 0.00 0.01 0.01 71 1012.9
20260508133021 42 269 1.0 8.0 0.00 0.01 0.01 78 1012.7
20260508131524 42 295 2.0 6.0 0.00 0.01 0.01 80 1012.7
20260508130012 42 297 3.0 7.0 0.00 0.01 0.01 82 1012.4
20260508124517 41 295 3.0 5.0 0.00 0.01 0.01 86 1012.2
20260508123020 40 343 0.0 4.0 0.00 0.01 0.01 92 1012.0
20260508121523 40 319 2.0 7.0 0.00 0.01 0.01 93 1012.0
20260508120035 39 294 1.0 4.0 0.00 0.01 0.01 95 1012.1
20260508114513 38 331 0.0 3.0 0.00 0.01 0.01 96 1012.1
20260508113019 37 177 1.0 2.0 0.00 0.01 0.01 96 1012.2
20260508111522 36 273 0.0 1.0 0.00 0.01 0.01 96 1012.3
20260508110025 35 120 0.0 3.0 0.00 0.01 0.01 96 1012.3
20260508104510 34 188 0.0 2.0 0.00 0.01 0.01 96 1012.2
20260508103027 33 188 0.0 1.0 0.00 0.01 0.01 95 1012.1
20260508101533 32 188 0.0 2.0 0.00 0.01 0.01 95 1012.1
20260508100027 32 188 0.0 2.0 0.00 0.01 0.01 94 1012.0
20260508094527 33 199 0.0 2.0 0.00 0.01 0.01 94 1011.9
20260508093011 33 198 0.0 2.0 0.00 0.01 0.01 94 1011.8
20260508091516 34 250 0.0 0.0 0.00 0.01 0.01 93 1011.8
20260508090024 35 250 0.0 2.0 0.00 0.01 0.01 92 1011.8
20260508084525 35 250 0.0 2.0 0.00 0.01 0.01 92 1011.8